This is the latest recevied weather packets stored in our database for station/object KA8DUX-2. If no packets are shown the sender has not sent any weather packets the latest 10 day(s).
| Time | Temp. | Humidity | Pressure | Rain* | Wind** | Luminosity | Snow |
|---|---|---|---|---|---|---|---|
| 1777552511 | 4.44° C | 94% | 1014.6 hPa | 0 mm | - | 104 W/m² | - |
| 1777552207 | 3.89° C | 95% | 1014.4 hPa | 0 mm | - | 99 W/m² | - |
| 1777551904 | 3.89° C | 97% | 1014.4 hPa | 0 mm | - | 103 W/m² | - |
| 1777551601 | 3.89° C | 98% | 1014.5 hPa | 0 mm | - | 46 W/m² | - |
| 1777551299 | 3.89° C | 99% | 1014.3 hPa | 0 mm | - | 47 W/m² | - |
| 1777550995 | 3.33° C | 99% | 1014.6 hPa | 0 mm | - | 43 W/m² | - |
| 1777550692 | 3.33° C | 99% | 1014.4 hPa | 0 mm | - | 39 W/m² | - |
| 1777550388 | 3.33° C | 99% | 1014.5 hPa | 0 mm | - | 37 W/m² | - |
| 1777550084 | 2.78° C | 99% | 1014.2 hPa | 0 mm | - | 34 W/m² | - |
| 1777549781 | 2.78° C | 99% | 1014.4 hPa | 0 mm | - | 33 W/m² | - |
| 1777549477 | 2.22° C | 99% | 1014.5 hPa | 0 mm | - | 31 W/m² | - |
| 1777549173 | 2.22° C | 99% | 1014.4 hPa | 0 mm | - | 29 W/m² | - |
| 1777548870 | 1.67° C | 99% | 1014.3 hPa | 0 mm | - | 28 W/m² | - |
| 1777548567 | 1.67° C | 99% | 1014.4 hPa | 0 mm | - | 25 W/m² | - |
| 1777548264 | 1.67° C | 99% | 1014.3 hPa | 0 mm | - | 23 W/m² | - |
| 1777547960 | 1.67° C | 99% | 1014.3 hPa | 0 mm | - | 21 W/m² | - |
| 1777547656 | 1.67° C | 99% | 1014.1 hPa | 0 mm | - | 19 W/m² | - |
| 1777547353 | 1.67° C | 99% | 1014.1 hPa | 0 mm | - | 16 W/m² | - |
| 1777547051 | 1.67° C | 99% | 1014 hPa | 0 mm | - | 14 W/m² | - |
| 1777546748 | 1.67° C | 99% | 1014.1 hPa | 0 mm | - | 11 W/m² | - |
| 1777546445 | 1.67° C | 99% | 1014.2 hPa | 0 mm | - | 7 W/m² | - |
| 1777546142 | 1.67° C | 99% | 1014 hPa | 0 mm | - | 6 W/m² | - |
| 1777545837 | 1.67° C | 99% | 1014 hPa | 0 mm | - | 4 W/m² | - |
| 1777545535 | 1.67° C | 98% | 1013.8 hPa | 0 mm | - | 2 W/m² | - |
| 1777545231 | 1.67° C | 98% | 1014 hPa | 0 mm | - | 0 W/m² | - |
* Rain latest hour (hover to see other rain measurements)
** Current wind speed in m/s (hover to see current wind gust speed)